• En España
  • Lista de países
  • Para 7 días
  • Temperatura del agua
  • Mapa Satelital
  • El tiempo en el mapa
  • Informadores
  • user-avatar
    Iniciar sesión

    Tiempo cada hora Klyuchevka

    Hoy, 21 Mayo, Lunes

    Tiempo Temperatura Precipitaciones Viento Presión Humedad
    00:00 +8°C° 0 mm 1 mps 756 mmHg 71%
    01:00 +8°C° 0 mm 1 mps 756 mmHg 72%
    02:00 +7°C° 0 mm 1 mps 756 mmHg 77%
    03:00 +8°C° 0 mm 1 mps 757 mmHg 76%
    04:00 +9°C° 0 mm 1 mps 757 mmHg 74%
    05:00 +9°C° 0 mm 1 mps 757 mmHg 73%
    06:00 +12°C° 0 mm 1 mps 758 mmHg 66%
    07:00 +15°C° 0 mm 1 mps 758 mmHg 58%
    08:00 +19°C° 0 mm 1 mps 758 mmHg 50%
    09:00 +20°C° 0 mm 1 mps 758 mmHg 46%
    10:00 +21°C° 0 mm 1 mps 758 mmHg 42%
    11:00 +22°C° 0 mm 1 mps 758 mmHg 38%
    12:00 +22°C° 0 mm 1 mps 758 mmHg 38%
    13:00 +23°C° 0 mm 2 mps 758 mmHg 37%
    14:00 +23°C° 0 mm 2 mps 758 mmHg 37%
    15:00 +23°C° 0 mm 2 mps 758 mmHg 40%
    16:00 +22°C° 0 mm 1 mps 757 mmHg 43%
    17:00 +22°C° 0 mm 1 mps 757 mmHg 46%
    18:00 +20°C° 0 mm 1 mps 757 mmHg 54%
    19:00 +18°C° 0 mm 1 mps 757 mmHg 62%
    20:00 +14°C° 0 mm 1 mps 758 mmHg 70%
    21:00 +13°C° 0 mm 1 mps 758 mmHg 73%
    22:00 +13°C° 0 mm 1 mps 758 mmHg 75%
    23:00 +12°C° 0 mm 1 mps 758 mmHg 77%

    Mañana, 22 Mayo, Martes

    Tiempo Temperatura Precipitaciones Viento Presión Humedad
    00:00 +11°C° 0 mm 1 mps 758 mmHg 78%
    01:00 +11°C° 0 mm 1 mps 758 mmHg 80%
    02:00 +10°C° 0 mm 1 mps 759 mmHg 81%
    03:00 +11°C° 0 mm 1 mps 759 mmHg 80%
    04:00 +11°C° 0 mm 1 mps 759 mmHg 78%
    05:00 +12°C° 0 mm 1 mps 759 mmHg 76%
    06:00 +14°C° 0 mm 1 mps 758 mmHg 69%
    07:00 +16°C° 0 mm 2 mps 758 mmHg 61%
    08:00 +18°C° 0 mm 2 mps 758 mmHg 53%
    09:00 +19°C° 0 mm 3 mps 758 mmHg 49%
    10:00 +20°C° 0 mm 3 mps 757 mmHg 45%
    11:00 +21°C° 0 mm 3 mps 757 mmHg 41%
    12:00 +21°C° 0 mm 3 mps 757 mmHg 42%
    13:00 +21°C° 0 mm 4 mps 756 mmHg 43%
    14:00 +21°C° 0 mm 4 mps 756 mmHg 44%
    15:00 +21°C° 0 mm 3 mps 756 mmHg 48%
    16:00 +20°C° 0 mm 3 mps 755 mmHg 51%
    17:00 +20°C° 0 mm 3 mps 755 mmHg 54%
    18:00 +18°C° 0 mm 2 mps 755 mmHg 61%
    19:00 +17°C° 0 mm 2 mps 754 mmHg 68%
    20:00 +15°C° 0 mm 2 mps 754 mmHg 75%
    21:00 +15°C° 0,1 mm 2 mps 754 mmHg 79%
    22:00 +15°C° 0,1 mm 2 mps 754 mmHg 84%
    23:00 +14°C° 0,1 mm 2 mps 753 mmHg 88%

    Pasado mañana, 23 Mayo, Miércoles

    Tiempo Temperatura Precipitaciones Viento Presión Humedad
    00:00 +14°C° 0 mm 2 mps 753 mmHg 91%
    01:00 +13°C° 0 mm 2 mps 753 mmHg 94%
    02:00 +13°C° 0 mm 2 mps 753 mmHg 97%
    03:00 +13°C° 0 mm 2 mps 753 mmHg 96%
    04:00 +14°C° 0 mm 2 mps 753 mmHg 94%
    05:00 +14°C° 0 mm 2 mps 753 mmHg 93%
    06:00 +15°C° 0 mm 2 mps 753 mmHg 89%
    07:00 +15°C° 0 mm 2 mps 753 mmHg 85%
    08:00 +16°C° 0 mm 3 mps 753 mmHg 80%
    09:00 +17°C° 0 mm 3 mps 753 mmHg 75%
    10:00 +18°C° 0 mm 3 mps 753 mmHg 69%
    11:00 +20°C° 0 mm 3 mps 753 mmHg 64%
    12:00 +20°C° 0 mm 3 mps 752 mmHg 61%
    13:00 +21°C° 0 mm 3 mps 752 mmHg 58%
    14:00 +23°C° 0 mm 2 mps 752 mmHg 55%
    15:00 +21°C° 0,5 mm 2 mps 752 mmHg 62%
    16:00 +21°C° 0,5 mm 2 mps 751 mmHg 69%
    17:00 +20°C° 0,5 mm 2 mps 751 mmHg 76%
    18:00 +18°C° 0,1 mm 2 mps 751 mmHg 81%
    19:00 +18°C° 0,1 mm 1 mps 751 mmHg 85%
    20:00 +16°C° 0,1 mm 1 mps 751 mmHg 90%
    21:00 +15°C° 0 mm 1 mps 751 mmHg 91%
    22:00 +14°C° 0 mm 1 mps 751 mmHg 93%
    23:00 +14°C° 0 mm 1 mps 751 mmHg 94%

    24 Mayo, Jueves

    Tiempo Temperatura Precipitaciones Viento Presión Humedad
    00:00 +13°C° 0,5 mm 1 mps 751 mmHg 94%
    01:00 +13°C° 0,5 mm 1 mps 751 mmHg 95%
    02:00 +13°C° 0,5 mm 2 mps 751 mmHg 96%
    03:00 +13°C° 0,2 mm 2 mps 751 mmHg 94%
    04:00 +13°C° 0,2 mm 2 mps 751 mmHg 93%
    05:00 +13°C° 0,2 mm 2 mps 751 mmHg 91%
    06:00 +13°C° 0 mm 3 mps 751 mmHg 85%
    07:00 +16°C° 0 mm 3 mps 752 mmHg 79%
    08:00 +17°C° 0 mm 3 mps 752 mmHg 73%
    09:00 +17°C° 0,2 mm 4 mps 752 mmHg 75%
    10:00 +17°C° 0,2 mm 4 mps 753 mmHg 77%
    11:00 +16°C° 0,2 mm 5 mps 753 mmHg 78%
    12:00 +15°C° 0,1 mm 5 mps 753 mmHg 77%
    13:00 +14°C° 0,1 mm 5 mps 754 mmHg 75%
    14:00 +14°C° 0,1 mm 4 mps 754 mmHg 73%
    15:00 +14°C° 0 mm 4 mps 754 mmHg 66%
    16:00 +15°C° 0 mm 4 mps 755 mmHg 60%
    17:00 +15°C° 0 mm 4 mps 755 mmHg 53%
    18:00 +14°C° 0 mm 4 mps 755 mmHg 56%
    19:00 +12°C° 0 mm 3 mps 756 mmHg 59%
    20:00 +10°C° 0 mm 2 mps 756 mmHg 63%
    21:00 +9°C° 0 mm 2 mps 757 mmHg 63%
    22:00 +8°C° 0 mm 2 mps 757 mmHg 64%
    23:00 +7°C° 0 mm 3 mps 758 mmHg 64%

    25 Mayo, Viernes

    Tiempo Temperatura Precipitaciones Viento Presión Humedad
    00:00 +7°C° 0 mm 2 mps 758 mmHg 64%
    01:00 +6°C° 0 mm 2 mps 758 mmHg 64%
    02:00 +5°C° 0 mm 2 mps 759 mmHg 63%
    03:00 +6°C° 0 mm 2 mps 759 mmHg 62%
    04:00 +5°C° 0 mm 3 mps 760 mmHg 62%
    05:00 +5°C° 0 mm 3 mps 760 mmHg 61%
    06:00 +8°C° 0 mm 3 mps 760 mmHg 55%
    07:00 +10°C° 0 mm 3 mps 760 mmHg 49%
    08:00 +11°C° 0 mm 4 mps 761 mmHg 43%
    09:00 +13°C° 0 mm 4 mps 761 mmHg 41%
    10:00 +14°C° 0 mm 4 mps 761 mmHg 39%
    11:00 +15°C° 0 mm 4 mps 761 mmHg 37%
    12:00 +16°C° 0 mm 3 mps 761 mmHg 37%
    13:00 +17°C° 0 mm 3 mps 760 mmHg 36%
    14:00 +18°C° 0 mm 3 mps 760 mmHg 36%
    15:00 +18°C° 0 mm 3 mps 760 mmHg 37%
    16:00 +18°C° 0 mm 2 mps 760 mmHg 39%
    17:00 +18°C° 0 mm 2 mps 760 mmHg 41%
    18:00 +16°C° 0 mm 2 mps 760 mmHg 48%
    19:00 +14°C° 0 mm 2 mps 760 mmHg 56%
    20:00 +12°C° 0 mm 1 mps 760 mmHg 64%
    21:00 +12°C° 0 mm 1 mps 760 mmHg 65%
    22:00 +10°C° 0 mm 2 mps 760 mmHg 67%
    23:00 +9°C° 0 mm 2 mps 760 mmHg 68%

    26 Mayo, Sábado

    Tiempo Temperatura Precipitaciones Viento Presión Humedad
    00:00 +9°C° 0 mm 2 mps 761 mmHg 69%
    01:00 +8°C° 0 mm 2 mps 761 mmHg 70%
    02:00 +8°C° 0 mm 2 mps 761 mmHg 71%
    03:00 +8°C° 0 mm 2 mps 761 mmHg 71%
    04:00 +9°C° 0 mm 2 mps 762 mmHg 70%
    05:00 +10°C° 0 mm 2 mps 762 mmHg 69%
    06:00 +13°C° 0 mm 2 mps 762 mmHg 63%
    07:00 +15°C° 0 mm 2 mps 762 mmHg 56%
    08:00 +17°C° 0 mm 3 mps 762 mmHg 50%
    09:00 +19°C° 0 mm 3 mps 762 mmHg 46%
    10:00 +20°C° 0 mm 3 mps 762 mmHg 42%
    11:00 +21°C° 0 mm 3 mps 762 mmHg 38%
    12:00 +22°C° 0 mm 3 mps 761 mmHg 38%
    13:00 +22°C° 0 mm 4 mps 761 mmHg 37%
    14:00 +23°C° 0 mm 4 mps 761 mmHg 37%
    15:00 +24°C° 0 mm 3 mps 760 mmHg 40%
    16:00 +22°C° 0 mm 3 mps 760 mmHg 44%
    17:00 +22°C° 0 mm 3 mps 760 mmHg 47%
    18:00 +20°C° 0 mm 2 mps 760 mmHg 55%
    19:00 +18°C° 0 mm 2 mps 759 mmHg 63%
    20:00 +16°C° 0 mm 2 mps 759 mmHg 71%
    21:00 +15°C° 0 mm 2 mps 759 mmHg 73%
    22:00 +14°C° 0 mm 2 mps 759 mmHg 76%
    23:00 +13°C° 0 mm 2 mps 759 mmHg 78%
    Mostrar más